Theta_e
321 321 320 319 319 321 322 321 321 321 321 321 319 318 317 316 317 322 324 325 327 326 323 325 325 324 325 325 328 329 330 330 329 330 330 330 330 330 331 331 330 331 331 329 329 328 328 329 330 329 328 329 329 329 329 325 321 323 325 324 325 325 324 324 323 323 323 323 323 323 322 322 321 320 319 319 318 318 318 319 319 318 319 320 321 320
321 319 318 318 318 319 320 322 323 322 322 321 319 317 316 317 318 322 325 325 327 325 322 325 325 324 325 325 326 328 328 328 327 329 329 329 330 330 330 331 331 333 332 330 330 330 328 328 330 330 329 329 329 330 329 323 320 324 325 325 326 326 325 325 325 324 324 323 323 323 322 322 321 320 319 318 318 318 318 318 318 318 318 320 320 321
319 318 317 318 317 317 319 321 322 321 322 321 318 317 315 317 320 323 325 326 326 324 323 325 323 323 325 325 326 327 327 327 327 328 329 328 329 328 329 330 331 333 331 330 331 331 329 328 329 329 329 329 329 329 328 325 324 325 326 326 327 326 326 326 325 325 325 324 323 323 322 322 321 320 319 319 319 318 318 318 318 318 318 319 320 321
315 316 317 317 317 319 318 320 321 320 320 320 318 315 314 317 318 318 323 327 326 325 324 324 322 322 325 325 326 327 326 327 327 327 328 328 327 328 328 328 329 330 331 331 332 332 331 330 329 330 330 330 329 329 328 327 327 326 326 327 328 328 327 326 326 326 326 324 323 323 323 322 321 321 321 320 319 319 318 317 317 318 318 319 320 321
315 316 316 315 318 319 319 319 320 319 317 317 318 315 313 316 316 317 323 327 326 325 325 323 319 319 323 325 325 326 326 326 326 325 326 326 326 327 327 328 329 329 331 333 333 334 334 332 331 331 331 332 331 331 330 329 328 327 327 328 329 329 328 327 326 326 326 325 325 325 324 323 322 322 321 321 320 319 318 317 318 318 317 319 320 320
317 316 315 316 318 319 320 319 319 318 314 314 317 316 316 316 317 320 324 324 320 320 324 322 316 316 321 323 324 325 325 325 325 324 324 324 324 324 324 325 327 328 330 333 333 334 335 333 332 332 332 333 332 331 331 330 329 328 328 329 329 329 328 327 327 326 327 326 326 326 324 324 323 323 322 322 321 320 319 318 318 318 318 318 319 320
318 317 317 318 318 319 319 318 318 318 314 312 315 317 318 318 318 320 322 319 315 317 324 323 317 315 318 321 325 325 325 325 324 324 324 323 323 322 323 324 324 327 331 333 333 334 334 334 333 332 332 333 332 331 331 330 330 329 329 330 330 329 328 328 327 327 327 327 327 327 325 324 324 323 323 322 322 320 320 319 318 318 318 318 318 319
318 318 318 318 319 319 318 317 318 318 315 312 316 318 318 318 319 320 320 317 316 318 322 323 319 316 316 320 325 325 324 325 324 324 323 322 323 323 322 323 323 325 328 330 331 333 334 334 333 333 333 333 332 331 331 331 331 331 330 330 330 329 329 329 328 327 328 328 328 328 326 325 324 324 323 322 322 321 320 319 318 317 317 317 318 319
318 318 318 318 318 318 317 317 318 318 316 315 318 320 320 321 320 320 319 317 317 317 317 320 320 317 315 319 325 325 323 325 325 324 323 323 323 323 323 323 323 324 326 327 329 332 333 334 334 334 334 333 332 332 331 331 331 331 331 331 330 330 330 330 329 328 328 329 328 329 327 325 324 324 323 322 322 321 320 319 318 317 317 317 318 319
317 317 317 318 318 317 317 319 318 317 318 317 318 321 322 322 322 321 319 317 317 316 314 317 319 316 315 317 321 323 322 323 325 324 324 323 323 323 324 324 323 324 324 325 328 330 332 334 334 334 334 333 332 332 332 331 331 332 332 331 331 331 330 331 330 329 329 329 329 329 328 326 324 324 324 323 322 321 321 320 318 317 317 317 318 319
317 316 317 318 318 317 317 318 317 317 318 318 319 321 321 321 321 321 320 317 316 315 315 316 319 318 316 315 318 323 323 323 325 325 324 324 323 323 324 323 322 323 323 324 325 327 331 333 334 334 334 334 333 332 332 331 331 331 332 332 332 332 331 331 331 330 330 330 329 328 328 327 325 325 325 323 322 322 321 320 319 318 317 317 317 318
318 317 318 318 317 317 318 318 318 317 318 319 320 320 317 318 318 317 317 317 314 315 316 316 319 319 316 316 320 324 325 324 324 325 325 324 323 323 324 323 323 323 323 323 323 324 328 331 333 334 335 335 335 334 333 332 331 331 331 332 332 332 332 332 332 331 331 331 331 329 329 328 327 326 325 323 322 322 321 320 320 318 317 317 317 317
318 319 318 318 317 319 319 318 317 317 319 319 318 316 314 313 314 313 313 314 312 314 317 317 317 318 316 317 322 324 324 324 324 324 324 323 323 324 324 323 324 323 323 324 323 323 326 328 329 330 331 332 334 335 335 334 333 333 332 332 333 333 333 333 333 332 331 332 331 330 330 329 328 327 326 324 322 322 321 321 320 319 317 317 316 316
315 318 319 319 319 320 320 318 316 317 319 318 316 313 312 313 313 313 312 312 312 314 316 317 317 316 315 319 322 323 324 324 324 324 324 324 324 325 324 323 323 324 323 324 323 323 325 327 328 329 329 329 331 332 334 334 334 334 334 334 333 333 333 333 333 332 332 332 332 331 330 330 329 328 327 325 323 322 321 321 320 319 318 317 317 316
312 315 319 320 319 320 320 319 318 318 318 319 319 316 313 313 313 313 313 312 312 313 315 317 318 314 314 320 323 323 323 323 323 323 324 325 326 326 324 322 323 323 323 323 323 323 325 328 330 331 330 330 330 331 333 333 333 333 333 333 333 333 333 334 334 333 332 332 332 332 331 330 329 328 327 326 324 323 322 321 321 320 319 317 317 316
312 313 318 320 319 320 320 320 320 320 319 319 319 317 314 315 314 314 316 317 315 314 314 316 316 316 318 323 323 322 322 322 322 323 324 325 325 325 324 323 322 322 322 322 322 323 326 329 330 331 330 329 330 331 332 332 332 332 332 331 332 332 332 333 333 333 332 332 332 332 331 331 330 328 328 326 325 324 323 321 321 320 319 319 318 317
312 314 320 320 319 321 319 320 321 319 319 319 317 315 317 319 317 314 317 321 319 315 315 315 314 315 319 321 322 322 322 322 322 323 323 324 324 324 324 323 322 321 321 321 321 323 326 328 329 329 329 328 329 330 331 331 331 332 332 331 331 331 331 332 332 332 332 331 331 331 331 330 329 329 328 327 326 325 324 322 321 320 320 320 319 318
316 314 319 321 320 319 318 319 320 319 320 319 316 316 318 319 319 316 314 316 315 313 314 314 313 313 314 317 322 323 323 323 323 323 323 324 324 324 323 323 322 322 321 321 321 323 326 327 327 328 327 327 328 329 330 331 332 332 332 332 332 331 331 331 332 332 332 331 331 330 330 330 329 329 328 328 328 326 325 323 321 320 320 320 320 318
319 314 317 321 320 319 319 319 320 319 320 320 318 319 320 316 316 316 314 314 313 312 312 313 313 312 312 315 320 322 323 324 324 323 323 323 323 323 322 322 323 323 323 322 321 322 325 326 326 327 327 326 327 329 329 330 332 331 330 330 331 332 332 332 332 332 332 331 331 330 330 330 330 330 329 328 328 327 326 324 322 321 321 320 320 318
322 317 315 320 321 320 321 321 319 318 319 320 319 320 321 318 316 315 315 314 313 313 313 312 312 312 314 317 320 323 324 325 324 324 324 323 323 323 322 322 323 323 323 322 321 322 324 326 326 327 327 326 326 327 328 330 330 331 331 331 331 332 332 332 332 332 332 331 331 330 330 330 330 329 329 328 328 328 327 325 322 321 321 321 320 319
323 318 314 318 320 319 319 321 320 319 320 318 317 317 318 319 318 317 316 315 313 313 312 312 311 312 317 321 322 324 325 325 325 325 324 323 324 323 323 323 323 324 324 322 322 322 323 327 328 328 328 326 326 327 328 330 330 330 330 331 331 332 332 332 332 332 332 332 331 331 331 331 331 330 329 329 329 328 327 326 323 322 321 321 320 319
321 318 314 315 317 317 319 323 322 323 324 321 318 318 318 319 318 316 315 316 315 313 313 314 312 313 319 322 322 324 326 325 324 324 324 323 323 323 323 324 324 324 324 323 323 323 324 326 327 328 328 326 326 326 327 329 329 328 328 328 329 331 330 330 331 330 330 331 331 331 331 331 331 331 330 329 329 328 328 326 324 322 321 320 320 319
323 321 316 314 317 320 321 323 321 322 326 326 323 323 323 322 318 314 313 315 316 315 315 315 312 315 323 326 325 326 326 325 325 325 324 323 323 324 323 323 324 324 324 324 323 324 325 326 326 326 326 325 325 325 326 327 327 327 328 326 326 329 329 329 329 329 329 330 331 331 331 332 332 331 330 330 329 329 328 327 324 322 321 320 320 319
323 323 317 314 319 322 323 325 324 324 326 326 326 326 324 324 322 318 318 317 315 314 315 314 312 316 325 327 326 327 326 325 326 326 324 323 324 324 323 323 324 324 325 325 324 325 326 325 325 325 324 324 323 324 326 326 325 326 327 327 326 328 329 329 329 328 328 329 330 331 331 331 332 332 331 330 330 329 329 327 325 322 321 320 320 319
321 320 317 315 316 318 320 323 324 324 325 325 327 329 327 327 326 322 321 318 313 314 316 313 310 314 324 327 324 324 324 323 325 325 325 324 324 324 324 324 324 324 324 324 324 325 326 325 325 324 323 323 322 323 324 324 324 325 326 326 326 327 327 327 326 326 326 327 329 330 331 331 331 331 331 330 329 329 329 327 324 322 321 320 320 319
321 322 318 314 313 314 315 318 320 322 323 325 329 331 329 329 327 322 319 314 312 316 317 312 310 314 323 325 322 322 323 322 323 325 325 324 324 324 324 324 324 324 324 324 324 324 325 325 325 324 323 323 322 322 323 323 323 323 324 326 326 325 325 325 324 324 325 327 329 330 331 331 330 330 330 330 329 329 328 326 323 322 321 320 320 319
322 322 321 318 316 315 317 321 325 325 322 323 327 329 329 330 328 324 317 311 313 316 314 313 314 315 318 321 322 323 323 321 323 324 324 324 324 324 325 325 325 324 324 324 324 324 325 325 325 325 324 324 323 322 322 322 322 322 323 325 325 323 323 324 324 324 326 328 329 329 330 330 330 330 329 329 328 327 325 324 322 321 321 320 320 319
322 319 323 324 321 321 323 326 329 328 325 325 325 327 329 329 329 325 319 317 319 316 311 317 322 319 318 321 322 324 325 324 323 323 323 324 325 325 325 325 325 324 324 324 324 324 323 324 325 326 325 324 323 322 322 322 322 322 323 323 323 322 323 324 324 323 325 327 328 328 329 329 329 329 328 327 326 325 323 322 322 321 321 320 320 320
323 318 324 325 322 325 326 326 329 328 327 328 326 325 328 329 328 327 323 323 324 318 314 321 327 324 323 324 323 323 325 325 323 324 325 326 326 325 324 323 323 323 323 322 322 323 323 323 325 326 326 325 324 323 323 322 322 323 323 322 321 321 322 323 323 322 324 325 325 326 326 327 327 327 326 326 324 323 322 322 321 321 321 320 320 320
323 321 326 326 322 325 326 326 328 327 326 328 327 326 328 328 329 328 326 327 328 324 322 325 329 328 327 325 324 324 326 326 326 326 326 325 324 323 323 323 323 322 322 322 322 323 323 324 326 326 326 325 324 323 323 323 322 322 322 321 320 320 320 321 321 322 323 324 324 324 324 324 325 325 324 324 323 322 322 322 322 321 321 320 320 319
323 322 328 327 321 322 326 326 326 326 326 327 326 326 329 331 331 329 329 330 328 326 326 328 328 327 326 325 326 326 327 327 325 324 324 323 323 323 323 322 322 322 322 322 322 322 323 324 325 326 325 324 324 323 322 322 322 322 321 320 320 320 320 320 321 321 322 323 323 323 323 323 323 323 322 322 322 322 322 321 321 321 320 320 320 319
325 323 327 326 317 318 325 325 324 327 327 325 326 327 330 331 329 327 327 328 326 324 326 326 323 324 326 327 326 326 327 326 324 324 324 323 323 323 323 322 322 323 323 322 322 322 322 322 324 325 325 324 323 322 322 322 322 321 321 320 320 320 320 320 321 321 321 322 322 322 322 322 322 322 321 322 321 321 321 321 321 320 320 320 320 319
327 323 323 322 315 315 322 324 323 325 322 320 324 327 329 330 328 326 327 328 328 326 323 322 322 324 329 328 325 326 327 325 323 324 323 323 323 323 324 323 322 322 323 322 322 322 322 322 323 324 325 323 322 321 321 321 321 321 320 320 320 320 320 321 321 320 320 320 321 321 321 321 321 321 321 321 320 321 321 320 320 320 319 319 319 319
328 324 322 321 315 315 321 324 323 321 316 317 323 326 327 330 330 329 328 328 330 328 324 323 324 327 329 328 326 326 326 325 325 325 326 326 324 324 324 324 323 323 323 323 323 323 323 323 323 323 324 324 323 321 321 320 321 321 320 320 320 320 320 320 320 321 320 320 320 320 320 321 320 320 320 320 320 320 320 320 320 319 319 319 319 319
328 324 323 323 317 316 320 321 318 316 316 320 326 327 325 326 327 329 329 328 330 330 328 327 326 326 326 326 327 327 326 327 326 324 325 327 325 325 325 324 324 324 324 324 324 324 325 325 325 325 326 325 322 322 322 321 320 320 321 320 320 320 321 320 320 320 320 320 320 320 320 321 321 320 320 320 320 320 320 319 320 320 320 319 318 318
327 324 322 321 319 318 318 316 314 316 320 326 329 326 324 325 327 327 325 326 328 330 331 329 326 326 325 325 327 327 326 326 324 322 323 324 325 325 325 324 325 325 325 325 325 325 326 327 326 326 325 324 323 322 322 321 321 321 321 321 321 321 321 320 320 320 320 320 320 320 320 321 321 321 321 321 320 321 320 319 320 320 320 319 319 318
326 325 323 320 320 319 316 314 315 317 319 324 328 327 327 328 329 326 321 321 324 327 329 329 328 326 325 326 328 328 325 324 322 321 322 322 323 325 324 324 325 326 328 328 327 327 328 328 328 326 324 324 324 324 322 321 322 322 321 321 321 321 321 320 320 320 320 320 320 320 320 320 320 321 321 321 320 321 320 320 320 320 320 320 319 319
323 325 324 321 319 319 317 315 316 316 314 318 324 327 327 327 328 327 322 321 323 324 325 327 328 327 326 329 329 327 325 323 320 321 322 322 324 326 326 326 325 327 329 329 329 329 329 329 329 328 327 326 326 326 325 324 324 324 322 322 322 322 321 321 320 320 320 320 320 320 320 320 320 321 321 321 321 320 320 320 320 320 320 320 319 319
323 324 325 321 318 318 318 316 316 314 314 319 325 327 326 325 327 328 322 318 321 324 324 327 327 326 327 329 328 326 324 320 318 320 323 324 325 327 326 324 323 326 328 328 329 329 329 330 330 329 329 328 327 326 327 327 327 325 323 322 322 322 322 321 320 320 320 320 320 320 320 320 321 321 320 320 320 321 321 321 321 321 320 320 319 319
324 323 322 319 316 316 317 316 315 314 317 324 328 325 323 325 328 325 318 316 321 325 325 326 326 325 328 329 327 325 322 319 320 324 327 328 329 329 328 324 323 325 326 326 328 329 329 330 331 329 329 328 326 324 326 328 328 326 324 323 322 322 322 321 320 321 320 321 321 321 321 321 321 322 322 321 321 321 322 322 321 321 321 320 319 318
323 322 320 318 316 316 317 316 314 315 320 328 328 324 324 326 325 320 316 318 323 324 325 327 326 327 329 328 325 323 320 320 327 330 329 328 327 327 328 326 325 327 326 325 328 330 330 330 329 327 328 327 325 324 327 329 328 326 325 324 323 323 322 321 320 321 321 322 321 321 321 321 322 323 323 323 322 322 323 322 322 322 322 321 320 319
320 320 319 318 316 316 317 317 314 316 323 328 325 324 325 324 320 318 320 323 325 324 326 328 326 328 329 327 325 325 322 324 330 330 328 326 325 325 326 325 325 326 326 328 329 328 328 330 329 328 328 327 326 327 328 329 327 325 325 324 325 324 322 320 321 321 322 322 321 321 321 321 322 324 324 323 323 323 323 323 322 322 322 321 320 320
321 318 316 317 318 317 316 317 315 316 322 326 324 323 323 321 320 322 323 323 325 326 326 326 325 327 328 326 326 327 325 326 328 328 326 326 326 326 326 325 325 325 325 328 329 326 326 328 329 329 328 326 327 328 329 328 327 326 325 325 326 324 322 321 323 323 322 322 322 321 321 321 323 324 324 322 322 323 323 323 323 322 322 322 321 321
322 319 315 317 320 317 314 317 319 319 323 325 323 322 322 323 326 327 324 321 323 324 324 323 324 326 328 326 325 326 327 328 327 327 328 328 328 329 328 328 328 327 326 327 328 328 328 327 327 328 327 327 328 329 328 327 326 326 325 325 325 324 323 324 325 324 323 323 323 322 321 321 322 323 324 323 323 323 323 323 323 323 322 322 321 321
324 323 321 320 321 320 318 320 324 324 324 325 324 323 323 324 326 327 325 323 323 323 323 324 324 325 327 327 325 325 327 327 327 328 329 329 329 329 330 329 329 329 328 327 327 328 329 327 326 326 327 327 328 329 328 326 325 326 325 322 321 323 324 325 326 325 324 323 323 322 321 321 322 322 323 323 323 323 323 323 323 322 321 321 321 320
324 325 324 322 323 323 322 323 324 324 323 324 324 324 324 324 324 325 325 325 324 323 324 325 324 324 326 326 325 325 326 326 328 328 328 328 327 327 329 331 330 329 329 328 327 328 328 327 326 326 326 327 327 329 328 326 325 325 323 320 320 322 324 325 325 325 324 323 323 322 322 322 321 321 322 323 323 322 321 321 322 322 321 321 320 320
323 322 321 322 323 323 321 323 324 324 323 323 323 323 324 324 324 325 325 325 324 324 325 326 326 326 325 325 326 326 325 326 327 328 327 327 326 327 330 331 330 329 329 328 328 328 328 327 326 326 326 326 326 327 328 327 325 324 321 321 323 324 324 325 325 324 324 323 323 322 322 323 321 320 321 323 322 321 320 320 320 321 320 320 320 320
323 321 320 322 324 323 322 324 325 324 323 323 323 322 323 324 324 324 325 325 326 326 326 327 327 326 326 326 327 327 327 326 326 327 327 326 326 327 328 329 328 328 328 328 329 329 328 327 326 326 326 326 326 326 327 328 327 324 322 322 323 324 325 325 323 323 324 324 323 322 322 322 322 320 319 320 321 321 320 320 320 320 320 320 319 320
321 320 321 323 323 323 323 323 323 323 323 324 324 324 324 325 324 323 324 324 326 326 326 327 327 327 327 326 326 327 327 327 326 326 327 327 326 326 326 326 326 326 326 327 328 329 328 326 326 326 326 326 326 326 326 327 327 326 325 324 324 325 326 325 323 322 323 323 322 322 322 322 321 321 320 319 320 320 320 320 320 320 320 320 320 319
321 321 323 323 322 322 323 324 325 325 324 324 324 324 325 326 324 323 322 323 323 324 324 324 325 326 326 327 327 326 326 326 325 325 325 326 327 326 325 325 325 325 325 326 327 328 327 327 326 326 326 325 326 325 325 325 326 326 326 325 325 325 325 325 324 323 323 323 322 322 322 322 321 320 320 320 319 320 320 320 319 318 317 318 319 319
322 323 324 323 323 324 325 325 325 325 324 324 323 324 324 323 322 322 321 321 321 321 321 321 322 323 323 324 326 326 325 324 324 323 324 326 327 327 326 326 326 325 325 326 326 326 326 326 326 327 326 325 325 324 324 323 323 323 324 324 324 324 324 324 324 323 323 322 321 321 321 321 320 320 320 319 319 319 319 318 318 317 317 317 318 318
Wind_Speed
2 3 2 2 3 2 2 3 4 5 5 2 4 4 4 4 5 5 4 3 1 2 4 4 3 5 6 5 4 4 3 2 2 1 2 1 2 2 2 5 6 6 8 13 13 9 9 10 10 10 10 11 13 12 12 13 12 10 10 9 8 8 7 6 4 2 0 1 2 4 5 6 7 8 8 9 10 11 10 9 9 9 9 10 10 8
4 1 4 5 5 3 3 2 2 3 2 1 2 3 4 3 5 4 3 3 2 3 4 2 1 5 5 4 4 2 1 1 0 1 2 2 2 2 3 2 3 3 7 10 10 10 12 12 12 11 10 12 13 13 15 16 14 13 13 10 8 7 6 6 3 2 1 1 2 3 5 5 6 7 7 8 9 10 10 9 9 9 9 9 10 9
4 3 6 4 3 1 1 1 3 2 2 3 2 2 3 4 4 4 3 4 3 3 3 2 1 5 5 3 3 2 1 1 1 2 3 3 4 3 3 4 3 3 8 10 10 11 15 15 13 13 11 12 14 15 17 17 14 14 14 12 9 7 6 6 4 3 2 2 2 3 3 4 5 5 5 7 9 9 10 9 8 8 9 9 9 9
2 6 6 2 0 2 5 4 5 3 2 1 1 1 4 4 2 2 3 5 4 2 1 1 2 3 5 4 3 2 0 1 1 2 3 3 3 4 4 4 5 3 5 10 10 10 13 14 14 14 13 13 14 15 16 16 15 14 14 13 10 7 6 7 6 4 3 3 2 1 1 1 3 4 3 6 8 8 9 10 9 8 9 8 8 8
5 7 4 2 3 2 6 7 5 3 3 1 2 2 3 2 2 2 4 6 5 3 1 3 3 3 4 3 4 4 2 1 1 1 1 1 1 2 3 3 4 4 1 4 7 8 10 11 12 12 12 12 13 14 15 15 15 13 13 13 11 7 6 8 7 6 5 3 3 2 1 1 1 3 4 6 7 7 8 10 9 9 9 8 8 8
7 6 1 3 3 3 4 4 1 3 1 3 1 3 4 2 0 3 7 6 5 4 2 3 4 3 4 3 3 3 3 3 2 2 3 4 3 2 2 3 3 3 3 2 3 6 8 8 8 9 10 11 12 12 13 13 14 13 12 12 11 8 6 8 8 8 6 4 4 3 2 2 2 3 5 6 6 6 8 9 9 9 8 8 8 7
4 3 1 2 2 3 3 3 2 5 3 3 4 3 2 2 2 5 7 5 2 2 3 3 5 1 4 4 4 2 1 3 4 4 6 6 5 5 5 5 4 4 4 3 2 3 5 6 6 7 8 10 10 10 10 11 12 13 12 12 11 9 7 8 9 8 7 5 4 4 4 3 3 3 4 5 4 5 7 8 8 8 8 8 8 7
2 1 1 1 3 3 2 3 4 6 5 3 5 1 2 2 2 4 5 4 2 2 3 4 4 3 1 5 5 3 2 3 4 5 6 6 6 6 5 5 5 5 4 3 3 2 3 4 5 6 7 8 8 8 9 10 11 12 13 12 11 10 8 8 9 9 8 6 5 5 5 3 3 3 3 3 4 4 6 8 8 8 9 9 8 7
2 3 3 1 4 1 3 5 5 6 5 4 4 1 1 1 1 3 4 2 1 2 3 3 2 5 0 5 6 4 2 2 3 4 5 5 5 5 5 5 5 5 4 3 3 2 2 3 4 4 5 6 7 8 9 9 10 11 12 12 12 11 10 9 10 10 9 8 6 6 6 5 4 3 3 2 3 4 5 8 8 8 9 9 8 7
2 4 5 5 3 3 6 6 4 4 3 4 3 2 2 2 1 2 4 1 1 5 2 4 1 5 1 4 5 3 2 2 3 3 4 4 4 4 4 3 3 4 4 4 3 3 3 3 3 4 5 5 6 7 8 9 9 9 10 11 12 12 11 11 11 10 9 9 8 7 7 6 4 4 3 2 2 3 4 7 8 8 9 9 9 8
4 3 1 3 4 4 3 4 3 1 1 4 5 4 4 3 2 2 3 1 3 4 1 4 1 5 3 2 2 2 2 2 1 2 4 3 3 4 3 2 3 3 4 4 3 4 5 4 4 4 5 6 7 7 7 8 8 9 9 10 11 12 11 11 11 11 10 9 9 8 8 7 5 4 4 3 2 3 4 6 8 9 9 9 8 8
6 5 2 3 3 3 2 2 4 3 3 3 4 2 3 3 3 4 3 2 5 1 4 3 2 5 5 1 3 4 4 2 0 1 3 2 2 3 2 2 3 2 3 3 3 4 4 4 4 3 3 4 6 6 6 6 6 7 8 9 10 10 10 10 10 10 10 9 9 8 8 8 6 6 5 4 3 3 3 4 6 8 10 8 8 9
4 4 4 4 2 3 4 3 4 5 5 4 4 3 4 3 2 3 2 2 4 1 5 2 1 4 5 1 3 4 4 4 2 1 2 2 2 3 2 2 2 1 2 3 3 3 2 2 2 2 1 2 3 4 4 5 5 5 6 7 8 8 8 9 9 9 9 8 8 8 8 8 8 7 7 6 4 3 3 3 4 7 9 8 8 9
3 5 4 3 3 3 6 4 1 2 2 2 3 3 4 4 2 4 3 2 2 2 4 2 1 4 3 2 3 3 4 4 3 1 0 1 1 2 2 2 1 1 2 2 3 3 2 1 1 1 1 1 1 2 3 3 4 4 5 6 6 6 6 7 8 7 7 8 8 8 8 8 8 8 8 7 5 5 5 4 3 5 7 8 8 8
1 3 4 3 1 3 5 5 5 4 3 2 3 4 5 3 4 4 3 3 4 2 2 3 2 4 2 3 4 3 4 4 3 3 2 2 1 1 1 1 0 1 2 2 3 3 2 1 1 1 1 0 1 2 2 2 2 2 2 3 3 3 4 5 6 6 7 7 7 7 8 8 8 8 7 7 7 7 6 5 4 4 5 7 8 7
3 2 6 5 3 3 4 4 5 6 3 1 1 4 3 3 3 3 3 4 5 4 1 3 3 3 2 3 4 3 5 5 4 3 3 3 2 1 1 2 2 2 2 2 2 2 3 3 2 2 1 1 1 2 2 2 2 2 1 1 1 2 2 4 5 5 6 6 6 7 8 8 8 8 8 7 8 9 8 6 5 4 4 5 6 6
3 3 7 4 3 3 4 3 3 5 3 1 3 1 3 3 4 3 0 1 3 5 1 1 3 2 1 4 5 5 6 6 5 4 2 1 0 1 1 2 3 3 3 3 3 3 3 3 3 2 1 1 1 2 2 3 2 2 2 2 2 2 2 3 4 4 5 5 6 7 7 8 8 9 9 9 9 10 10 8 6 5 4 3 5 5
3 2 7 4 3 5 2 2 3 3 5 4 2 3 2 2 3 2 3 1 3 4 1 0 3 3 1 1 4 5 5 5 5 3 1 1 1 1 2 3 2 3 4 3 2 3 4 4 3 2 1 0 1 2 3 3 3 3 3 3 3 3 3 4 4 5 5 6 6 7 7 8 9 9 10 10 9 10 11 9 7 6 5 4 4 4
3 2 6 5 2 5 4 4 2 4 3 4 2 2 1 3 1 1 3 3 4 5 2 1 2 2 1 3 3 3 4 3 2 1 1 1 0 1 3 2 2 3 2 2 1 2 4 4 3 3 2 1 1 2 3 4 4 5 5 5 5 5 5 5 5 6 6 7 7 7 8 9 9 9 9 9 9 10 11 9 7 6 5 4 4 4
2 3 3 5 3 3 5 5 2 3 4 2 2 3 1 3 3 3 3 3 4 5 3 3 3 1 4 5 3 2 2 1 1 0 1 1 1 2 3 2 1 2 2 2 1 2 3 3 3 3 2 1 2 2 3 4 5 6 6 7 7 7 7 7 7 7 7 7 8 8 8 9 9 9 9 9 9 10 10 9 7 7 6 5 4 4
2 2 0 4 5 3 3 1 3 3 2 1 2 2 1 0 1 2 2 2 4 5 4 4 4 3 6 4 2 2 2 0 1 1 1 1 1 1 2 1 1 1 1 1 1 1 1 2 2 3 2 2 2 3 4 5 6 6 7 7 8 8 8 8 8 8 8 8 8 9 9 9 9 8 8 9 9 9 10 9 8 7 7 6 5 4
2 2 2 2 3 2 2 5 4 4 3 4 3 2 2 1 2 4 2 1 1 4 4 4 5 2 6 3 2 2 1 0 1 2 2 1 0 1 1 1 0 1 0 0 1 1 0 0 1 2 2 1 2 2 3 4 5 6 7 7 7 8 7 7 7 7 7 7 8 9 9 9 8 8 8 8 9 9 9 9 9 8 7 6 6 5
1 2 3 2 0 2 6 6 3 3 2 3 3 2 3 2 3 4 3 1 1 2 2 3 5 1 6 3 2 1 1 2 2 2 3 2 0 0 0 0 1 2 1 1 2 2 2 2 1 2 2 2 1 1 2 3 4 5 6 6 6 6 6 6 6 6 7 7 8 8 9 9 9 9 9 8 9 9 9 9 9 8 8 7 6 6
1 3 3 2 1 3 5 5 2 1 1 4 2 0 2 2 2 4 4 3 3 3 2 4 4 2 5 4 1 0 2 3 3 4 5 3 1 1 2 2 2 2 2 3 3 3 3 3 3 4 3 2 1 1 1 2 2 3 4 5 5 5 5 4 4 5 6 7 7 8 8 8 8 8 8 8 8 8 8 9 9 8 8 7 7 7
2 2 3 3 3 4 4 4 4 3 3 4 1 2 0 1 1 2 2 2 3 2 2 4 4 3 5 4 2 2 3 4 4 4 5 4 3 3 2 2 3 3 3 4 3 3 3 4 4 4 3 3 2 1 1 2 2 1 2 3 3 3 3 3 3 4 4 6 6 7 7 8 8 8 8 7 7 7 8 8 8 8 8 8 8 7
2 2 3 4 3 2 1 0 1 1 2 2 1 3 3 3 2 3 2 3 3 1 1 5 5 3 3 2 1 1 3 4 4 4 5 5 5 3 2 3 3 3 4 5 4 4 4 4 5 4 4 4 3 2 2 2 2 2 1 2 2 2 2 2 2 3 4 5 5 6 6 6 7 7 7 7 6 6 7 7 7 7 8 8 8 7
2 2 3 5 6 4 4 4 3 2 2 1 2 4 4 4 4 3 4 3 2 1 3 5 4 6 5 3 2 2 3 4 4 5 6 6 6 5 4 3 3 4 5 5 5 4 4 4 5 4 4 4 4 4 3 3 3 2 2 2 2 2 2 2 3 4 4 4 4 4 4 4 5 5 6 6 6 6 6 6 7 7 7 8 8 8
3 2 2 4 6 4 4 3 1 2 4 3 2 4 5 5 6 5 6 4 3 4 4 1 1 7 8 7 6 5 4 4 5 6 6 5 5 5 4 4 5 5 5 5 5 5 5 4 4 4 4 4 4 4 4 4 4 3 3 3 3 2 2 2 3 4 3 2 2 2 2 3 4 5 5 5 6 5 5 6 6 7 7 7 8 8
4 1 2 3 5 2 2 1 1 3 5 5 5 6 6 7 8 8 9 7 4 6 6 4 4 9 10 9 9 7 5 5 5 5 4 4 5 6 6 6 6 6 5 5 5 4 4 4 3 4 4 4 4 4 5 5 4 3 4 4 4 3 3 3 3 4 3 3 2 2 2 3 4 4 5 5 5 5 5 6 6 6 7 7 8 8
3 1 2 3 5 4 3 2 3 5 6 6 8 9 8 9 10 11 11 10 7 9 11 9 10 11 11 11 8 5 4 4 4 4 3 5 7 7 7 7 7 6 5 5 5 4 4 4 4 4 5 5 5 5 5 5 4 3 4 4 4 3 3 3 3 4 4 4 3 3 3 3 4 4 5 5 5 5 6 6 6 6 7 7 8 8
2 0 2 3 5 4 4 3 4 5 6 8 9 10 8 7 8 9 9 7 6 9 12 11 11 12 9 6 4 2 1 3 4 5 6 7 7 7 8 8 7 7 6 5 5 5 4 4 4 5 6 6 5 5 5 5 4 4 4 4 4 3 3 3 4 4 4 4 4 4 4 4 5 5 5 5 5 6 6 6 6 7 7 7 7 8
3 1 2 4 5 2 5 4 5 5 7 10 11 11 9 7 5 6 6 6 6 6 7 8 9 8 2 2 2 2 2 3 5 6 7 6 6 7 8 8 7 7 6 6 5 5 5 5 5 6 7 6 6 5 5 5 5 5 5 4 4 3 3 3 4 4 5 5 4 5 5 5 5 5 5 6 6 6 6 6 7 7 7 7 7 8
3 2 2 3 4 1 5 3 4 5 7 7 5 6 7 8 7 6 6 8 9 7 4 6 7 5 2 1 3 4 3 3 4 5 5 6 6 7 7 7 8 7 6 6 6 6 6 6 6 7 7 7 6 6 6 6 6 6 5 5 5 4 4 4 4 4 5 5 5 5 5 5 6 6 6 6 6 6 6 7 7 7 8 8 8 8
3 5 3 1 4 2 3 2 5 7 6 1 4 2 2 5 6 6 6 9 10 10 8 9 9 8 6 5 7 7 5 3 2 3 4 4 5 6 6 7 8 7 7 7 6 6 6 7 8 8 8 8 8 7 6 6 6 6 6 6 6 6 6 6 5 5 5 5 5 6 6 6 6 7 7 7 7 7 7 8 8 8 8 8 8 9
4 5 3 1 4 4 1 3 6 4 2 2 4 3 0 2 5 7 10 11 11 12 14 14 14 13 11 9 7 6 6 3 3 4 5 5 6 6 7 7 8 8 8 7 7 7 7 7 8 8 9 9 9 8 8 8 8 8 8 8 8 8 7 7 7 6 6 6 7 7 7 7 8 8 8 8 8 8 9 9 8 8 8 8 9 9
5 4 3 2 4 4 4 5 4 3 5 2 3 3 2 1 4 6 8 10 10 12 14 14 14 13 11 8 5 3 4 3 4 6 7 8 8 8 8 8 8 8 7 7 7 7 7 7 8 9 10 10 10 10 10 10 9 9 9 9 10 10 9 9 9 8 8 8 8 9 9 9 9 9 9 9 9 9 10 10 10 10 9 9 9 9
6 5 4 4 3 3 6 6 4 7 7 1 5 4 2 1 1 2 6 6 3 5 9 12 12 10 8 5 2 1 1 3 5 6 7 8 9 10 10 10 10 9 7 7 8 7 7 7 8 9 10 10 11 11 11 11 11 11 11 11 11 11 11 10 11 10 10 10 10 10 10 11 11 11 11 11 11 12 11 11 11 11 10 10 10 10
6 6 5 4 3 3 5 6 5 7 6 1 6 6 2 0 1 2 5 3 3 3 3 6 7 6 4 2 2 2 3 4 5 3 6 6 7 7 8 9 10 9 8 8 8 7 8 8 8 9 9 10 12 12 12 12 12 12 13 13 13 13 12 12 12 12 11 11 11 11 11 11 12 12 13 13 13 13 13 13 13 12 12 11 11 11
5 5 5 5 5 4 5 6 5 5 4 3 5 6 4 1 1 3 5 1 5 5 1 1 2 2 2 2 4 4 4 4 2 3 6 5 5 5 6 6 7 7 8 8 8 8 8 8 8 9 9 11 13 14 13 12 12 13 14 15 15 14 14 14 13 13 12 12 12 12 12 12 13 14 14 14 14 14 14 14 14 13 13 13 13 13
5 4 4 6 6 5 6 6 5 5 3 1 4 5 4 3 2 5 5 1 6 4 0 0 2 1 1 2 4 5 5 4 2 5 5 3 3 5 6 5 5 6 7 8 9 9 9 8 8 10 11 13 16 16 14 13 12 13 14 16 16 16 15 15 15 14 13 12 12 12 12 13 13 13 13 14 14 13 13 14 14 14 14 14 15 15
4 3 4 6 6 5 5 6 5 5 2 1 3 4 5 4 4 5 2 4 7 5 0 1 4 2 1 4 4 5 4 2 3 5 4 2 2 5 6 7 6 6 7 8 8 9 9 10 11 13 14 15 17 16 13 12 12 13 15 16 16 17 17 17 15 14 13 12 12 12 12 12 12 12 12 12 12 11 12 12 13 14 14 15 15 15
4 4 4 4 5 5 4 5 6 4 1 3 4 5 4 4 3 2 5 6 6 5 2 2 4 2 2 5 5 5 4 2 1 1 2 3 4 5 6 8 8 8 9 9 9 10 10 11 12 14 16 17 17 15 13 13 13 14 15 15 16 18 19 18 15 14 13 13 13 12 11 11 10 10 10 11 11 11 12 12 12 13 13 14 15 15
4 4 5 4 4 4 3 4 6 4 1 6 6 5 4 4 4 7 7 7 5 5 5 4 4 3 3 5 6 8 8 6 5 5 5 6 7 7 8 10 10 11 11 10 11 13 13 12 13 15 18 19 18 16 15 14 14 15 15 15 17 19 18 17 15 14 14 13 12 11 10 10 11 10 10 11 12 12 12 12 12 12 12 12 13 14
5 5 5 3 4 4 4 5 3 2 4 8 5 1 3 4 4 6 6 7 7 6 6 6 6 4 4 5 7 8 8 9 8 8 7 7 7 8 9 10 11 12 12 12 13 14 14 14 15 16 18 18 17 16 16 16 16 15 15 17 19 18 17 16 15 14 13 13 12 11 11 11 11 11 11 11 11 11 12 12 12 12 12 11 12 14
5 4 4 2 4 5 4 3 1 4 3 6 5 6 6 7 6 5 6 8 8 7 6 6 7 6 4 5 7 7 7 8 9 8 8 7 7 7 8 9 10 10 11 12 13 13 14 15 16 17 17 18 17 16 17 18 17 16 17 21 21 18 16 15 14 13 13 13 13 12 11 11 12 12 12 11 10 10 11 12 12 12 12 11 12 13
2 2 2 2 4 5 6 6 5 4 4 4 5 6 7 8 7 6 6 7 6 6 6 6 7 7 6 6 7 7 8 8 8 9 8 8 9 9 9 9 9 10 10 12 12 12 13 15 15 15 16 18 17 16 17 19 19 19 22 25 22 18 16 15 14 14 14 14 14 13 12 12 12 13 12 12 11 11 12 12 12 12 12 12 12 13
4 4 4 4 4 4 4 6 6 5 5 4 4 4 5 5 5 4 5 5 5 6 6 6 7 7 7 7 8 9 9 9 9 9 9 8 10 10 9 9 10 10 11 11 11 10 11 12 13 14 15 17 18 17 17 19 20 22 25 25 21 18 16 15 14 14 15 15 14 13 12 12 12 12 12 12 12 13 13 13 13 13 12 12 12 12
4 4 6 7 7 6 5 5 4 5 6 7 6 4 2 3 4 4 4 5 6 7 7 6 6 6 6 7 8 9 10 10 10 10 9 9 9 9 8 9 10 10 10 10 9 9 9 10 12 13 14 16 16 16 16 17 19 22 24 24 20 18 16 16 17 17 16 15 15 13 13 12 12 12 13 13 13 13 14 14 14 13 13 14 13 12
3 4 4 5 7 8 8 8 8 8 8 7 6 4 3 6 5 6 7 7 7 8 8 7 7 7 7 8 8 8 10 11 11 11 11 10 9 9 10 11 11 10 10 10 8 8 9 10 11 13 14 15 15 14 14 15 17 18 20 20 19 17 16 17 18 19 18 16 15 14 13 13 12 12 13 14 14 14 14 14 14 14 14 14 13 13
3 5 4 3 6 7 6 6 6 6 7 6 4 5 8 7 6 9 11 10 10 10 10 10 10 9 9 10 10 9 10 11 12 12 11 10 9 10 12 12 11 10 10 9 8 8 9 11 12 13 14 14 14 13 13 14 15 15 15 16 15 16 17 18 17 18 18 17 16 15 14 13 13 13 13 14 14 14 14 14 15 16 16 15 14 14
6 7 5 5 7 8 8 8 7 7 8 8 8 10 10 8 9 12 12 12 12 12 11 12 12 11 10 10 10 10 10 11 13 14 12 11 11 12 13 12 11 10 10 9 8 9 10 11 11 12 14 14 14 13 13 13 14 14 13 13 14 15 17 18 17 17 18 18 17 17 15 14 13 13 13 14 13 13 13 13 13 15 16 16 16 15
Wind_Direction
226 204 139 62 51 57 29 19 22 23 18 77 119 103 97 94 92 93 92 104 240 269 77 57 53 76 75 87 108 130 155 205 216 222 256 255 253 259 214 175 204 215 170 189 204 192 213 227 219 217 211 210 212 204 197 197 198 209 219 210 199 199 196 202 204 186 100 48 57 47 43 40 38 33 33 33 28 27 24 21 19 16 14 15 17 18
228 218 56 16 1 349 332 344 317 339 1 182 136 120 122 94 89 86 73 108 220 272 88 94 97 94 90 96 112 127 161 214 334 294 302 309 300 288 291 276 208 177 151 189 203 186 203 219 215 216 214 208 208 204 201 205 205 204 215 218 212 211 209 215 218 199 183 62 50 48 44 36 38 36 35 35 29 28 26 22 19 18 18 16 16 17
192 85 56 19 358 326 233 241 251 285 252 189 145 155 121 99 109 106 102 127 180 269 88 139 215 93 103 105 114 159 204 10 8 322 315 313 306 305 309 316 317 104 143 194 214 192 202 213 212 213 214 208 208 209 207 212 212 206 212 217 216 221 220 216 210 205 201 147 93 68 59 34 31 36 43 39 27 26 27 24 20 17 18 14 15 16
120 62 54 64 113 156 154 175 199 190 206 203 110 178 103 122 192 119 127 149 168 275 24 187 211 106 126 136 134 159 157 340 311 283 279 284 296 312 318 320 318 345 153 192 211 202 204 212 213 215 213 208 208 211 212 213 212 211 215 215 216 225 224 210 202 206 204 180 167 114 93 50 26 23 38 37 27 26 28 26 22 17 15 13 14 12
70 50 44 168 213 194 152 161 193 184 135 83 352 349 58 110 269 27 123 155 169 193 245 246 224 135 144 156 134 139 159 175 240 250 258 307 315 307 308 324 325 331 18 184 202 202 207 212 214 215 212 209 208 210 213 215 214 216 217 214 218 230 225 210 204 206 204 199 206 205 216 234 347 355 21 34 30 27 26 26 22 16 13 12 12 8
68 47 18 202 198 210 186 152 213 297 131 128 85 4 5 5 289 132 151 174 198 175 149 263 261 129 143 171 122 131 160 124 99 64 60 57 40 25 7 14 17 17 49 96 183 197 209 217 216 213 209 208 211 214 215 216 217 219 220 218 221 230 225 212 208 207 205 218 230 236 269 298 314 340 17 34 31 24 21 22 21 16 11 11 11 7
62 50 287 252 166 189 213 120 68 306 279 127 89 46 331 294 196 170 180 209 260 82 116 253 289 32 149 157 118 125 142 101 104 82 64 64 56 45 45 45 38 44 71 101 142 189 213 218 216 214 210 209 213 215 214 215 218 221 223 222 222 227 224 212 208 206 209 220 230 240 266 293 296 319 4 29 29 22 18 17 20 19 12 9 8 5
30 66 149 237 214 207 200 89 51 310 296 73 73 18 242 240 211 187 210 239 1 61 165 211 285 306 187 133 125 168 179 116 108 84 71 69 69 66 64 65 59 51 56 79 115 160 205 217 218 213 209 211 213 212 209 212 217 220 223 223 223 225 219 212 209 208 213 219 222 233 247 257 256 276 318 8 16 17 18 15 18 21 15 11 8 3
22 29 43 308 248 242 53 37 9 305 299 64 70 322 246 274 261 209 240 257 46 271 212 153 241 282 260 124 140 192 202 126 103 84 78 72 73 76 70 70 70 65 56 51 74 113 160 194 208 208 204 203 204 208 210 213 216 217 221 221 222 222 220 218 215 214 216 217 222 233 242 249 246 253 272 320 359 4 12 11 13 20 20 16 11 6
79 38 11 331 311 27 49 27 353 295 316 78 122 160 139 182 203 228 265 278 171 267 278 102 210 289 346 128 153 193 201 103 103 106 95 86 86 83 73 75 78 74 67 55 69 96 105 137 165 179 188 190 195 205 211 215 216 214 217 220 221 223 223 222 221 221 221 220 227 239 245 252 252 248 253 275 336 348 354 4 10 15 19 19 15 8
115 124 303 355 6 14 46 40 23 310 16 135 174 172 155 170 174 229 272 288 253 248 91 86 197 275 304 108 114 105 97 68 69 109 107 103 97 93 87 71 61 61 65 51 59 91 98 115 135 157 172 177 186 198 207 212 214 214 217 220 224 226 225 224 224 226 226 225 233 244 248 254 256 252 249 253 298 329 334 355 7 9 13 17 16 10
138 158 149 75 25 337 227 131 91 140 175 196 224 213 199 193 180 217 199 207 262 261 90 84 170 241 267 44 79 95 118 131 108 49 88 91 65 72 70 59 62 60 71 53 32 65 96 116 119 136 148 151 171 187 198 206 211 216 219 221 225 228 226 225 226 226 227 228 236 246 250 253 253 252 251 250 265 302 316 335 355 3 7 10 14 12
132 106 102 129 111 347 271 216 142 163 194 239 255 248 252 240 195 248 230 215 274 60 93 86 170 239 264 16 85 123 149 153 148 5 36 49 44 51 33 55 86 80 76 70 42 48 84 129 126 125 116 126 156 173 187 198 208 218 223 224 228 229 225 223 222 223 227 230 237 243 247 249 247 246 249 250 253 274 292 305 336 355 3 4 8 8
132 116 115 158 144 9 318 292 143 161 217 280 288 293 286 288 297 282 274 277 303 85 109 123 225 255 262 100 107 133 140 135 148 173 64 19 27 46 19 19 100 128 106 92 64 50 53 135 145 126 112 161 170 168 177 189 201 215 220 222 228 226 216 214 217 222 228 232 236 238 240 243 241 240 244 249 247 252 273 283 303 339 353 360 1 1
292 126 75 30 37 10 2 13 5 337 305 334 340 299 284 307 318 305 310 326 334 13 129 159 221 287 339 92 107 118 136 155 172 163 162 200 175 99 346 322 335 120 101 82 65 58 66 94 116 118 128 221 221 205 198 193 196 211 214 212 220 212 195 201 210 218 226 230 231 232 234 235 236 237 238 243 236 230 252 270 265 297 334 350 354 355
293 93 79 54 30 14 32 48 348 316 286 115 288 265 281 348 326 311 341 345 324 307 217 177 238 301 19 119 136 157 177 179 178 171 189 198 166 179 262 321 343 40 57 50 49 65 92 110 122 131 143 178 223 218 205 205 206 212 218 210 215 202 187 196 206 215 222 227 228 228 229 229 233 237 235 238 232 221 236 260 255 268 305 330 342 347
276 110 112 125 114 60 27 35 6 334 330 268 258 266 57 4 310 288 294 145 257 273 245 195 273 282 179 171 163 185 199 190 185 188 198 178 201 264 321 358 351 23 36 19 16 48 94 114 128 140 150 183 219 224 206 208 217 223 232 230 230 227 214 211 215 222 227 229 230 228 229 229 231 235 235 238 235 221 228 245 247 258 278 296 322 336
303 132 135 165 142 102 45 358 74 29 330 295 295 69 89 255 264 265 274 246 259 286 336 330 307 322 317 139 145 181 204 200 192 186 198 209 231 279 14 22 12 31 24 6 21 73 103 107 110 118 119 170 216 233 219 216 222 226 230 233 235 234 229 227 226 228 229 230 232 230 229 229 230 232 233 236 235 223 225 236 238 247 262 273 301 322
286 248 147 170 170 123 173 234 145 99 23 348 45 83 272 272 243 228 291 310 311 314 334 318 313 321 3 44 96 164 187 201 193 160 268 254 177 3 19 37 64 61 28 353 40 96 106 101 101 110 118 155 190 217 218 219 221 223 228 229 232 232 229 229 226 226 226 225 227 226 225 225 225 227 229 228 228 223 226 234 236 235 242 250 277 308
243 274 148 158 171 154 190 229 247 107 100 100 156 162 259 313 327 326 319 315 306 308 322 328 326 77 69 33 20 80 114 205 232 122 317 346 46 12 8 21 46 63 37 354 27 85 99 98 105 120 133 162 183 190 197 207 214 219 225 226 227 225 224 224 222 222 223 221 223 223 220 221 221 221 224 223 222 224 227 233 233 226 227 236 256 287
201 271 214 149 167 212 210 107 359 4 48 199 205 177 118 189 292 291 266 277 301 302 318 323 317 59 72 43 11 59 74 19 304 324 312 323 56 30 35 34 4 37 51 5 6 57 98 106 120 139 155 179 193 193 194 202 210 213 216 219 219 216 216 218 217 218 220 220 222 224 222 222 221 221 222 222 223 225 225 226 228 225 226 234 240 255
211 246 262 205 186 208 84 64 29 8 359 331 324 350 350 326 291 281 252 161 277 293 318 315 306 38 81 66 32 50 49 314 294 291 276 253 206 33 45 71 307 298 353 345 256 263 275 261 155 157 170 209 227 223 221 220 222 219 218 220 215 211 212 214 215 218 221 222 224 227 228 228 226 224 223 223 224 225 222 220 224 226 227 233 234 242
334 269 252 266 331 73 81 79 54 42 15 319 321 340 332 319 295 294 312 15 268 269 306 292 287 60 95 94 65 40 317 308 302 274 259 247 193 351 302 166 226 248 252 250 248 252 261 271 254 203 206 234 238 233 240 241 240 230 226 227 217 210 212 213 219 226 229 229 231 231 232 230 228 226 224 224 225 225 221 219 222 225 227 232 235 243
238 265 248 239 131 114 113 124 137 82 279 259 222 100 313 325 337 312 316 334 301 267 265 262 260 115 105 111 115 206 271 272 257 238 243 246 228 238 248 244 251 250 245 250 249 243 246 251 246 234 233 246 243 204 228 255 260 233 221 224 218 212 214 216 225 236 237 239 239 237 235 233 230 227 226 225 226 225 220 217 221 225 227 232 236 245
212 253 249 243 201 179 179 181 185 183 222 255 198 97 320 319 355 281 271 267 259 263 301 283 281 84 107 137 189 242 253 258 242 219 225 237 239 240 241 254 263 262 258 259 258 255 257 260 261 259 264 277 276 238 231 261 280 249 206 209 216 215 215 223 239 253 256 254 250 243 236 232 229 225 224 224 225 222 216 215 220 223 226 231 236 245
239 271 250 261 264 247 244 203 132 152 193 227 149 144 187 205 219 260 262 246 245 179 210 258 280 19 73 153 205 274 272 274 256 219 214 226 239 248 249 261 270 267 265 267 270 272 272 275 278 273 266 274 279 262 246 251 259 259 223 197 221 238 241 261 280 283 281 273 262 251 236 227 223 218 216 216 214 210 209 213 219 221 225 231 237 245
245 249 246 275 290 317 348 22 35 342 281 218 166 178 187 195 221 258 270 272 313 335 247 245 280 318 319 309 329 332 299 282 265 235 221 221 228 236 243 260 274 273 267 265 266 268 267 271 277 267 252 257 272 271 258 248 249 268 275 242 240 258 271 290 298 298 296 284 269 253 229 214 205 199 199 199 198 200 206 212 218 224 230 233 237 243
247 211 193 267 276 303 340 5 46 285 272 273 254 215 194 199 215 235 255 286 351 307 274 75 23 293 302 317 323 327 314 289 266 246 238 232 231 237 251 266 269 269 266 257 252 255 262 270 268 248 238 239 254 264 259 254 254 272 287 274 260 262 269 284 297 298 291 277 261 235 203 190 183 184 185 187 192 200 206 211 217 228 235 237 240 245
273 226 132 241 258 268 302 281 227 250 258 261 260 246 222 213 212 219 243 258 265 261 277 342 320 287 296 306 312 328 318 286 268 258 250 244 246 250 257 265 268 270 268 262 260 257 262 277 267 238 230 230 241 252 251 253 258 261 272 271 264 263 269 273 284 286 271 251 243 227 203 184 178 181 184 188 196 201 205 213 222 231 237 240 244 246
280 93 134 241 257 236 220 230 233 243 252 251 249 248 241 231 223 226 244 256 249 254 271 288 289 285 287 291 301 328 324 282 264 262 254 244 248 253 258 264 267 269 268 268 269 266 268 277 262 235 227 228 237 243 240 244 257 264 270 271 260 258 265 268 273 272 259 247 234 220 211 196 188 191 195 200 206 208 213 221 228 235 240 244 246 245
265 82 139 241 262 219 185 202 228 236 254 258 258 255 242 234 238 239 248 257 249 256 267 271 276 279 274 271 284 299 284 256 242 237 239 242 246 251 257 261 263 265 271 271 265 262 263 263 248 234 233 235 239 242 237 236 246 258 263 263 254 250 260 270 271 262 251 244 231 218 214 207 203 207 208 211 216 219 224 229 234 240 243 243 244 243
228 192 162 231 264 194 157 202 235 233 250 255 258 255 230 207 223 234 232 224 211 231 260 258 263 275 259 166 234 240 221 249 247 234 232 236 239 246 253 257 260 262 268 272 269 266 263 259 247 236 237 239 236 234 233 231 237 248 251 252 250 248 250 260 267 263 252 243 235 227 224 220 221 223 220 222 227 229 233 236 240 244 244 242 242 243
226 236 206 230 277 229 146 194 251 250 257 252 241 242 223 209 217 222 228 229 212 206 237 248 258 291 24 100 270 271 258 267 263 241 235 236 236 243 251 257 262 265 267 270 272 270 268 265 256 242 238 239 236 234 234 232 235 245 251 251 249 246 246 248 254 261 259 249 242 237 235 236 239 241 237 236 239 239 239 243 246 246 246 245 244 243
223 255 266 251 286 277 140 186 265 260 266 279 105 130 207 219 224 226 244 246 220 208 232 260 273 286 289 270 274 282 284 295 305 274 261 255 245 244 250 257 264 267 267 266 263 262 262 259 256 249 239 236 237 237 237 236 238 243 249 251 250 247 250 254 255 259 262 261 255 247 244 245 247 250 250 246 244 243 245 248 251 250 248 247 244 244
216 244 263 258 276 283 287 264 260 258 293 68 108 128 178 260 250 254 265 262 236 220 233 253 264 267 271 273 275 277 277 287 300 277 261 248 243 247 254 260 265 266 264 261 256 254 252 245 244 242 235 234 237 233 230 234 238 241 243 247 251 251 253 258 261 261 262 264 263 257 251 251 252 252 254 252 247 245 249 251 251 251 249 246 245 246
239 243 245 245 256 271 279 252 241 311 331 342 119 122 129 220 231 253 273 268 243 226 229 244 254 259 270 276 270 266 274 283 280 264 245 233 230 233 244 257 264 265 263 260 256 251 247 238 233 235 235 235 234 230 230 234 236 239 243 247 250 253 255 260 264 266 265 264 264 263 259 257 256 254 255 256 252 249 251 252 251 252 250 247 247 247
244 246 244 246 236 253 276 263 261 301 301 254 132 134 162 201 179 273 300 297 264 236 238 250 260 263 266 270 257 215 220 249 259 239 215 220 226 228 238 252 262 266 261 257 254 248 242 235 227 230 235 234 231 230 233 236 234 237 243 247 250 253 257 261 265 268 269 266 265 266 265 262 261 258 257 258 256 253 254 254 254 253 249 248 249 248
234 243 246 246 223 223 270 276 272 280 286 101 115 130 138 17 64 298 294 302 56 28 287 270 273 266 255 228 154 164 190 230 250 192 157 188 212 221 235 245 253 259 255 248 246 240 236 231 222 221 225 229 232 233 234 235 233 235 243 248 250 254 257 261 265 269 271 271 270 271 269 267 266 265 262 260 258 256 255 254 254 253 249 249 251 251
209 232 239 247 240 224 249 266 263 268 298 37 104 129 139 167 195 267 270 236 66 39 354 288 294 262 239 163 155 180 208 233 250 101 118 156 186 200 222 233 239 246 245 240 238 237 237 233 223 220 220 225 234 237 234 231 229 234 243 249 252 255 258 261 266 270 273 274 276 276 276 272 267 265 265 264 262 259 256 254 253 252 250 250 253 255
184 206 213 232 242 228 235 256 265 266 284 53 112 127 131 148 215 259 254 74 44 25 136 200 330 320 182 172 174 198 235 270 10 74 100 134 172 194 213 229 238 242 241 236 230 231 233 227 219 221 222 226 234 239 235 228 227 232 242 249 252 255 257 260 265 269 272 274 275 276 277 272 263 259 260 263 264 261 257 256 255 253 251 251 255 259
183 193 207 235 246 227 224 251 268 273 291 69 119 123 129 158 222 254 277 27 10 353 136 235 304 331 173 200 208 220 243 297 48 80 105 139 193 204 215 231 240 242 245 242 229 221 223 223 224 228 230 231 237 240 231 222 225 233 240 247 250 251 254 260 264 265 266 269 270 271 275 272 263 257 257 261 263 260 256 256 255 253 250 251 255 257
192 186 202 230 245 236 234 253 263 275 3 88 119 122 140 201 243 327 3 355 343 344 350 266 275 305 251 234 246 261 278 315 29 153 189 216 226 227 228 232 235 239 242 240 231 225 226 227 228 231 234 236 237 235 226 219 225 236 242 245 246 248 254 260 261 260 260 261 264 266 270 268 261 256 259 265 265 260 257 256 254 250 249 252 255 253
189 196 214 202 204 233 239 236 256 283 104 139 145 135 176 242 319 1 347 331 338 352 335 300 281 280 261 259 266 268 276 286 278 266 258 246 241 243 243 240 241 245 245 239 235 233 232 233 233 233 237 239 237 232 225 221 227 237 242 243 244 249 256 258 255 255 256 255 255 257 258 259 255 252 259 268 268 262 258 255 251 247 246 247 249 248
180 212 244 200 175 215 231 214 231 14 121 163 186 272 254 265 325 348 321 309 315 316 308 300 295 280 258 269 280 274 273 275 272 269 266 256 249 246 246 245 247 250 252 249 246 239 231 233 238 240 241 241 237 232 226 224 229 234 237 242 248 251 254 251 246 248 249 245 245 248 250 253 253 252 256 262 263 259 256 253 249 248 246 243 245 250
187 205 282 269 187 217 263 263 9 50 114 185 232 289 295 292 298 294 285 290 295 298 297 295 296 290 267 265 276 277 273 272 271 271 270 268 267 262 258 257 255 255 257 257 254 244 235 237 242 244 245 244 238 231 228 229 229 228 235 248 253 252 249 244 238 238 239 238 240 245 248 250 253 255 256 255 254 255 257 255 251 250 250 245 244 251
165 145 299 279 193 214 265 267 259 276 266 230 237 261 278 288 288 277 274 279 289 300 298 291 292 290 277 270 273 272 269 270 272 272 269 268 270 267 263 264 264 263 261 261 258 249 242 244 247 246 247 248 242 234 232 233 230 230 241 252 255 250 245 238 231 231 235 238 241 243 245 248 253 256 254 249 248 254 260 260 256 255 255 252 251 255
161 170 221 228 194 200 237 234 228 241 251 263 275 266 266 277 277 268 266 274 293 304 296 289 287 281 271 264 263 266 271 271 268 266 264 263 266 267 266 265 265 266 263 263 263 256 246 246 246 244 246 250 248 241 236 235 234 239 246 250 249 246 240 230 225 229 233 235 239 242 243 245 249 254 254 249 248 254 258 258 257 256 256 255 256 258
161 175 218 227 220 227 248 257 254 251 261 272 269 253 280 311 307 304 291 285 291 292 286 280 274 269 266 261 254 256 266 270 267 266 266 265 267 270 270 268 268 270 270 269 266 257 249 246 247 247 249 251 252 249 243 238 239 244 249 249 246 241 232 223 224 231 232 233 239 243 244 242 242 247 252 252 251 254 257 257 256 256 256 258 260 262
133 176 215 239 242 244 254 264 267 269 274 265 229 221 312 336 338 329 318 307 297 291 287 280 266 255 256 262 260 258 261 264 266 266 265 265 267 268 269 271 271 271 275 277 270 254 249 251 251 251 253 254 257 257 252 246 244 246 248 249 245 236 227 224 228 232 231 232 238 241 240 240 240 243 249 252 254 254 255 256 256 258 262 262 260 260
202 226 227 235 247 250 256 272 284 288 288 281 267 299 325 342 341 326 319 312 304 300 298 295 289 277 265 262 261 257 257 264 271 272 269 266 264 266 269 270 271 273 278 282 276 261 254 254 252 253 256 259 261 261 259 257 255 252 250 249 243 234 230 230 229 228 227 229 235 238 237 236 240 244 247 250 253 253 253 254 257 260 265 266 261 259
234 254 258 252 261 274 287 298 303 296 289 294 304 313 323 332 323 314 311 306 301 298 298 301 304 302 293 283 275 266 261 266 275 279 276 268 264 266 267 266 269 275 278 278 275 269 265 261 255 254 259 264 266 266 266 265 264 261 256 251 243 237 236 235 233 229 227 228 231 232 231 234 239 243 246 248 248 249 253 258 259 259 262 265 264 262